PEGASUS DEB, 39319

Orbit data source: Space-Track

PEGASUS DEB, 39319 is space debris in LEO originally from a launch on Thu, 19 May 1994 UTC launched from the Air Force Western Test Range (AFWTR). Debris objects in space refer to the collection of defunct objects orbiting the Earth. Examples of debris include non-operational satellites, rocket bodies, and fragments generated from explosions, collisions, or faulty payload assembly.

Loading next visibility...
Identifier
39319, 1994-029AFE
Orbit
LEO
Country
Flag of USUS
Related business
Manufacturer
Unknown
Mission
Spacecraft
Bus & Motor
Unknown
Mass
Unknown
Launch date (UTC)
1994-05-19 (32 years ago)
Launch vehicle
Unknown
Launch site
Air Force Western Test Range (AFWTR)
Object type
Payload
Rocket body
Debris
Shape & HBR
Unknown shape, 0.1 m
Radar Cross Section
Small (<0.1 m²)

Expand to show TLE details & history
Last TLE update: 1 day ago

TLE from 1 day ago
0 PEGASUS DEB
1 39319U 94029AFE 26061.96119359  .00001954  00000-0  26990-3 0  9995
2 39319  81.9450 144.7275 0179272 261.2632  96.8233 14.67165690262752
Epoch: 2026-03-02T23:04Z
TLE epoch observation values (Epoch: 2026-03-02T23:04:07.126Z)
Latitude
0.00003°
Longitude
-2.04929°
Altitude
690.372 km
Speed
7.502 km/s
True Right ascension
09h 38m 54s
True Declination
0° 00' 00"
Sunlit
Object was in full shadow at epoch
Visualization orbit readout
Latitude
Unknown
Longitude
Unknown
Altitude
Unknown
Speed
Unknown
Apparent Right ascension
Unknown
Apparent Declination
Unknown
Sunlit
N/A
Visualization observer readout
Local Sidereal Time
07:58:26
Azimuth
Unknown
Elevation
Unknown
Doppler factor
Unknown
Orbital elements
Apogee altitude
793.497 km
Perigee altitude
540.891 km
Semi-major axis
7,045.331 km
Eccentricity
0.01793
Inclination
81.945°
RAAN
144.7275°
Arg. of periapsis
261.2632°
True anomaly
98.85721°
Mean anomaly
96.8233°
Eccentric anomaly
97.84085°
Mean motion
3.67021 °/min
Orbital period
98.09 mins
BSTAR
0.0002699
Loading maneuver chart data...
Computing Atmospheric mass density...
Loading historical data...
Loading historical data...
Loading historical data...
Loading historical data...
Loading historical data...
Loading historical data...
Loading historical data...

Documentation

Showing up to 5 results
|